[[{"header":{"parameterUnit":"m.s-1","parameterCategory":1,"la1":30.2991,"la2":30.254,"lo1":-89.0895,"lo2":-89.0444,"dy":0.0017,"dx":0.0017,"nx":28,"ny":28,"refTime":"2023-08-20T09:00:00:Z","depth":0,"parameterNumber":2,"parameterNumberName":"U-component_of_WINDS"},"data":[0,0,0,0,0,0,0,0,0,0,0,0,0,0,0,0,0,0,0,0,0,0,0,0,0,0,0,0,0,0,0,0,0,0,0,0,0,0,0,0,0,0,0,0,0,0,0,0,0,0,0,0,0,0,0,0,0,0,-3.9203,-3.9204,0,-3.9232,-3.9233,-3.9233,-3.9158,-3.9155,-3.9153,-3.9151,-3.9183,-3.9186,-3.9189,0,0,0,0,0,0,0,0,0,0,0,0,0,-3.9088,-3.909,-3.9203,-3.9204,-3.9204,-3.9232,-3.9233,-3.9233,-3.9158,-3.9155,-3.9152,-3.915,-3.9182,-3.9186,-3.919,0,0,0,0,0,0,0,0,0,0,0,0,0,-3.913,-3.9091,-3.9203,-3.917,-3.9167,-3.9232,-3.9233,-3.9233,-3.9159,-3.9155,-3.9152,-3.9148,-3.9181,-3.9186,-3.919,-3.929,0,0,-3.9204,-3.9206,0,0,0,0,0,0,0,0,-3.9127,-3.9134,-3.9175,-3.9172,-3.9169,-3.9188,-3.9204,-3.9252,-3.916,-3.9162,-3.9151,-3.9147,-3.9188,-3.9192,-3.9205,-3.9291,-3.9293,-3.9205,-3.9207,-3.9209,-3.9211,0,0,0,0,0,0,0,-3.9125,-3.9132,-3.9215,-3.9175,-3.9172,-3.9155,-3.9157,-3.9213,-3.9195,-3.9162,-3.9156,-3.916,-3.9186,-3.9201,-3.9205,-3.9293,-3.9205,-3.9209,-3.9212,-3.9213,-3.9465,-3.9469,0,0,0,0,0,0,-3.9125,-3.913,-3.9214,-3.9216,-3.9139,-3.916,-3.9162,-3.9185,-3.9194,-3.9192,-3.9163,-3.9157,-3.9195,-3.92,-3.9206,-3.9324,-3.9209,-3.9214,-3.9216,-3.9461,-3.9466,-3.947,0,0,0,0,0,0,-3.9123,-3.9134,-3.9213,-3.9172,-3.918,-3.9166,-3.9192,-3.9188,-3.9203,-3.9195,-3.9192,-3.9182,-3.9192,-3.92,-3.927,-3.9324,-3.9216,-3.922,-3.9457,-3.9463,-3.9468,-3.9561,0,0,0,0,0,0,-3.912,-3.9133,-3.9169,-3.9173,-3.9183,-3.9275,-3.9196,-3.9191,-3.921,-3.9202,-3.9211,-3.921,-3.919,-3.9263,-3.9274,-3.9329,-3.9224,-3.9452,-3.9459,-3.9466,-3.9553,-3.9569,-3.9583,0,0,0,0,0,-3.9116,-3.9195,-3.9172,-3.9182,-3.9228,-3.9278,-3.9284,-3.9258,-3.9215,-3.9252,-3.9248,-3.9209,-3.9317,-3.9271,-3.9283,-3.934,-3.9448,-3.9457,-3.9466,-3.9546,-3.9566,-3.9583,0,0,0,0,0,0,-3.9198,-3.9194,-3.9169,-3.925,-3.9265,-3.9265,-3.9311,-3.928,-3.9308,-3.9299,-3.9268,-3.9271,-3.9347,-3.9351,-3.93,-3.9438,-3.9375,-3.9387,-3.9433,-3.9451,-3.9466,-3.9464,-3.9227,0,0,0,0,0,-3.9226,-3.9265,-3.926,-3.9333,-3.9342,-3.9326,-3.9346,-3.9326,-3.934,-3.9346,-3.9347,-3.9364,-3.9401,-3.9427,-3.9461,-3.9554,-3.9556,-3.9599,-3.9614,-3.9627,-3.9637,-3.9689,-3.9708,-3.9499,-3.9499,-3.9499,0,0,-3.9283,-3.9286,-3.9313,-3.935,-3.9358,-3.9402,-3.9331,-3.938,-3.9412,-3.9354,-3.942,-3.9422,-3.9438,-3.9521,-3.9558,-3.9526,-3.9695,-3.9638,-3.9648,-3.9651,-3.97,-3.9719,-3.9737,-3.9505,-3.9504,-3.9503,0,0,-3.9409,-3.9415,-3.9476,-3.9487,-3.9502,-3.9491,-3.9506,-3.9512,-3.9511,-3.9577,-3.9534,-3.9574,-3.9639,-3.9653,-3.9669,-3.9804,-3.977,-3.9817,-3.9896,-3.9946,-3.9963,-3.9977,-4.0027,-4.0045,-3.9827,-3.9827,-3.9827,0,-3.9478,-3.9541,-3.9512,-3.9564,-3.9583,-3.9532,-3.9596,-3.9608,-3.9634,-3.9649,-3.9613,-3.9695,-3.9703,-3.9789,-3.9822,-3.9836,-3.9854,-3.9815,-3.9963,-3.9977,-3.999,-4.0037,-4.0055,-3.9833,-3.9832,-3.9832,-3.9831,0,-3.9626,-3.9671,-3.9719,-3.9745,-3.9769,-3.9826,-3.9809,-3.9837,-3.9815,-3.9809,-3.9879,-3.9887,-3.9922,-3.9941,-3.9921,-4.0026,-4.0006,-3.9967,-3.9904,-4.0016,-4.0059,-4.0077,-3.9841,-3.9839,-3.9837,-3.9836,0,0,-3.9802,-3.9813,-3.9832,-3.9844,-3.9858,-3.9892,-3.9949,-3.9984,-4.0009,-4.003,-4.0078,-4.0135,-4.01,-4.0118,-4.0099,-4.0144,-4.0253,-4.01,-4.01,-4.0129,-4.0371,-4.0401,-4.0422,-4.0231,-4.0234,-4.0237,-4.037,0,-3.9927,-4.0023,-4.0001,-4.0096,-4.0138,-4.0093,-4.0142,-4.0158,-4.0154,-4.0191,-4.0188,-4.0229,-4.0179,-4.019,-4.0232,-4.0231,-4.0301,-4.0221,-4.0277,-4.0279,-4.0274,-4.0444,-4.0474,-4.0599,-4.0387,-4.039,-4.0392,0,-4.0085,-4.0112,-4.0211,-4.0221,-4.0237,-4.0282,-4.0314,-4.0349,-4.0366,-4.0361,-4.0383,-4.0356,-4.0415,-4.0352,-4.0433,-4.0379,-4.0401,-4.0405,-4.0409,-4.0413,-4.0342,-4.0453,-4.0639,-4.0658,-4.0418,-4.0416,-4.0414,0,-4.0205,-4.0266,-4.0333,-4.0345,-4.0357,-4.0391,-4.0398,-4.0411,-4.0435,-4.0463,-4.0478,-4.0513,-4.0533,-4.0561,-4.0546,-4.0501,-4.0631,-4.0566,-4.063,-4.063,-4.0658,-4.0656,-4.085,-4.0673,-4.0673,-4.0672,-4.0672,0,-4.0347,-4.041,-4.0387,-4.0429,-4.0499,-4.0475,-4.0545,-4.0547,-4.0561,-4.0604,-4.0567,-4.0609,-4.0585,-4.0626,-4.0615,-4.0685,-4.0694,-4.0693,-4.0689,-4.0696,-4.0696,-4.0709,-4.07,-4.0677,-4.0676,-4.0675,-4.0674,0,-4.0491,-4.0479,-4.055,-4.0556,-4.056,-4.0611,-4.0618,-4.0658,-4.0653,-4.0708,-4.072,-4.0712,-4.0758,-4.0746,-4.0796,-4.0789,-4.0878,-4.0863,-4.0872,-4.0868,-4.0932,-4.0927,-4.1141,-4.1169,-4.0974,-4.0976,-4.0977,0,-4.0582,-4.0629,-4.0642,-4.0667,-4.0677,-4.0719,-4.0743,-4.0722,-4.0748,-4.0773,-4.0811,-4.0854,-4.0887,-4.0963,-4.0963,-4.1002,-4.0988,-4.1061,-4.0994,-4.1,-4.099,-4.0988,-4.0993,-4.1074,-4.1076,-4.1078,-4.108,0,-4.0745,-4.0737,-4.0772,-4.0806,-4.0835,-4.0861,-4.0884,-4.0908,-4.0888,-4.0921,-4.0967,-4.0993,-4.1045,-4.1088,-4.1125,-4.1134,-4.1105,-4.1101,-4.1118,-4.1125,-4.1129,-4.1128,-4.0908,-4.1096,-4.1094,-4.1093,-4.1092,-4.1092,-4.0866,-4.0907,-4.0922,-4.0963,-4.0978,-4.1001,-4.1039,-4.104,-4.1078,-4.1118,-4.1104,-4.1157,-4.1177,-4.1223,-4.1237,-4.128,-4.1253,-4.1277,-4.1283,-4.1289,-4.1298,-4.1122,-4.1287,-4.1286,-4.1286,-4.1285,-4.1285,0,-4.1027,-4.1036,-4.1074,-4.1107,-4.114,-4.1109,-4.1134,-4.1164,-4.1211,-4.1231,-4.1265,-4.132,-4.1363,-4.1368,-4.1409,-4.1443,-4.1431,-4.1455,-4.1452,-4.1455,-4.1319,-4.1301,-4.1464,-4.1464,-4.1464,-4.1464,-4.1464,-4.1464,-4.1115,-4.1183,-4.1178,-4.1254,-4.1262,-4.1314,-4.1331,-4.1353,-4.1369,-4.1432,-4.1467,-4.147,-4.1485,-4.1527,-4.1567,-4.1567,-4.1584,-4.1613,-4.1609,-4.1482,-4.1464,-4.1447,-4.143,-4.1617,-4.1617,-4.1741,-4.1742,-4.1743]},{"header":{"parameterUnit":"m.s-1","parameterCategory":1,"la1":30.2991,"la2":30.254,"lo1":-89.0895,"lo2":-89.0444,"dy":0.0017,"dx":0.0017,"nx":28,"ny":28,"refTime":"2023-08-20T09:00:00:Z","depth":0,"parameterNumber":3,"parameterNumberName":"V-component_of_WINDS"},"data":[0,0,0,0,0,0,0,0,0,0,0,0,0,0,0,0,0,0,0,0,0,0,0,0,0,0,0,0,0,0,0,0,0,0,0,0,0,0,0,0,0,0,0,0,0,0,0,0,0,0,0,0,0,0,0,0,0,0,2.9062,2.9062,0,2.9078,2.9078,2.9078,2.9118,2.9119,2.912,2.9121,2.9132,2.9131,2.9131,0,0,0,0,0,0,0,0,0,0,0,0,0,2.9063,2.9063,2.9062,2.9062,2.9062,2.9078,2.9078,2.9078,2.9118,2.9119,2.912,2.9121,2.9132,2.9131,2.9131,0,0,0,0,0,0,0,0,0,0,0,0,0,2.9069,2.9063,2.9062,2.9084,2.9086,2.9078,2.9078,2.9078,2.9118,2.9119,2.912,2.9121,2.9132,2.9131,2.9131,2.91,0,0,2.9128,2.9128,0,0,0,0,0,0,0,0,2.9069,2.9069,2.9081,2.9083,2.9085,2.9097,2.9083,2.9085,2.9117,2.9106,2.9121,2.9122,2.9119,2.9119,2.9119,2.9101,2.9101,2.9128,2.9128,2.9128,2.9127,0,0,0,0,0,0,0,2.9068,2.9069,2.9068,2.9081,2.9083,2.9092,2.9095,2.9083,2.9105,2.9107,2.911,2.9111,2.912,2.912,2.912,2.9102,2.9128,2.9128,2.9127,2.9127,2.906,2.9058,0,0,0,0,0,0,2.9065,2.9068,2.9068,2.9069,2.908,2.9091,2.9094,2.9092,2.9105,2.9108,2.911,2.9113,2.9121,2.9121,2.912,2.9085,2.9128,2.9127,2.9126,2.9061,2.9059,2.9058,0,0,0,0,0,0,2.9065,2.9065,2.9067,2.9069,2.907,2.909,2.9088,2.9092,2.9091,2.9108,2.9111,2.9106,2.9122,2.9122,2.9106,2.9086,2.9127,2.9126,2.9063,2.9061,2.9059,2.9015,0,0,0,0,0,0,2.9065,2.9065,2.9053,2.9069,2.907,2.9052,2.9086,2.9091,2.909,2.9094,2.9105,2.9108,2.9123,2.9107,2.9105,2.9086,2.9125,2.9064,2.9062,2.9059,2.9018,2.9012,2.9006,0,0,0,0,0,2.9065,2.9039,2.9053,2.9052,2.9057,2.9051,2.9052,2.9071,2.9089,2.9077,2.9089,2.9107,2.909,2.9105,2.9103,2.9084,2.9066,2.9062,2.906,2.9021,2.9013,2.9007,0,0,0,0,0,0,2.9019,2.9042,2.9057,2.9036,2.9041,2.9058,2.9044,2.9062,2.9061,2.9065,2.9088,2.909,2.907,2.9076,2.9092,2.9056,2.9081,2.9077,2.9052,2.9045,2.9039,2.9036,2.9125,0,0,0,0,0,2.9007,2.9002,2.9021,2.9001,2.9003,2.9023,2.9021,2.9036,2.9043,2.9045,2.9054,2.9058,2.9054,2.905,2.9047,2.9021,2.9023,2.9007,2.9001,2.8996,2.8992,2.8978,2.8971,2.9048,2.9048,2.9048,0,0,2.898,2.8992,2.8987,2.8992,2.8998,2.8991,2.9025,2.9016,2.901,2.9043,2.9028,2.9036,2.9042,2.9021,2.9012,2.9025,2.8972,2.8992,2.8988,2.8986,2.8974,2.8967,2.896,2.9046,2.9046,2.9047,0,0,2.8929,2.8938,2.8922,2.8929,2.8939,2.8953,2.8949,2.8964,2.897,2.8957,2.8981,2.8976,2.8967,2.8971,2.8971,2.8925,2.8942,2.8924,2.8891,2.8877,2.8871,2.8866,2.8848,2.8841,2.892,2.892,2.892,0,2.8894,2.8886,2.8911,2.8901,2.8902,2.8934,2.8918,2.8922,2.893,2.8929,2.8945,2.8937,2.8943,2.8923,2.8912,2.8912,2.8908,2.892,2.8871,2.8865,2.8861,2.8844,2.8837,2.8917,2.8918,2.8918,2.8918,0,2.8842,2.8836,2.8822,2.8831,2.8831,2.8817,2.884,2.8837,2.8853,2.8865,2.8851,2.8861,2.8861,2.8858,2.8872,2.884,2.8848,2.8867,2.8892,2.885,2.8835,2.8828,2.8914,2.8915,2.8915,2.8916,0,0,2.8757,2.8784,2.8777,2.8782,2.8798,2.8793,2.8782,2.8783,2.878,2.8785,2.8775,2.8769,2.8787,2.8788,2.8804,2.8793,2.8754,2.8813,2.8813,2.88,2.8718,2.8701,2.8693,2.8767,2.8766,2.8765,2.8717,0,2.8707,2.869,2.8714,2.869,2.8685,2.8718,2.8708,2.8715,2.8728,2.8724,2.8737,2.8732,2.8757,2.8758,2.8749,2.8761,2.8737,2.8765,2.8756,2.8755,2.875,2.8685,2.8668,2.8621,2.8711,2.871,2.8709,0,2.8645,2.865,2.8626,2.8645,2.8643,2.8634,2.8638,2.8635,2.8645,2.8655,2.8658,2.8678,2.8667,2.8695,2.868,2.8698,2.8696,2.8702,2.8701,2.8698,2.8727,2.8678,2.8607,2.8599,2.87,2.8701,2.8701,0,2.8583,2.8584,2.857,2.8574,2.8595,2.8588,2.8596,2.8608,2.8608,2.8612,2.8612,2.8614,2.8614,2.8615,2.8634,2.8653,2.8617,2.8646,2.8623,2.8622,2.861,2.861,2.8535,2.8614,2.8614,2.8614,2.8615,0,2.8522,2.8506,2.8543,2.8534,2.8517,2.8546,2.8528,2.854,2.855,2.8543,2.8573,2.8565,2.8594,2.859,2.8606,2.859,2.8591,2.8597,2.8601,2.8592,2.8591,2.8589,2.8591,2.8613,2.8613,2.8613,2.8614,0,2.8448,2.8473,2.846,2.8483,2.8488,2.8474,2.8493,2.8486,2.8502,2.8493,2.8493,2.8517,2.8513,2.8535,2.8535,2.8546,2.8522,2.8533,2.8518,2.8521,2.8495,2.8496,2.8413,2.8403,2.8491,2.8491,2.849,0,2.8406,2.8395,2.8418,2.8417,2.8424,2.8422,2.8423,2.8451,2.8451,2.8463,2.8454,2.8454,2.8455,2.8448,2.8464,2.8465,2.8474,2.8446,2.8474,2.8467,2.8471,2.847,2.8468,2.8438,2.8437,2.8436,2.8435,0,2.8329,2.8342,2.8343,2.8349,2.835,2.8356,2.8363,2.836,2.8391,2.8389,2.8388,2.8389,2.8391,2.839,2.8394,2.8402,2.8422,2.8427,2.8421,2.8411,2.8402,2.8404,2.8499,2.8428,2.8428,2.8429,2.8429,2.843,2.8268,2.8259,2.8275,2.8275,2.8285,2.8292,2.8286,2.8303,2.8302,2.8307,2.8324,2.8319,2.8331,2.834,2.8346,2.8342,2.8356,2.8347,2.8345,2.8342,2.8336,2.8406,2.8343,2.8343,2.8344,2.8344,2.8344,0,2.8189,2.8202,2.8203,2.8213,2.8214,2.8238,2.8248,2.8246,2.8242,2.8253,2.8254,2.8252,2.8252,2.8271,2.8273,2.8266,2.8275,2.8265,2.8264,2.8265,2.8325,2.8329,2.8257,2.8257,2.8257,2.8257,2.8257,2.8257,2.8148,2.8136,2.8151,2.8144,2.8156,2.8153,2.8157,2.8163,2.8171,2.8169,2.817,2.8183,2.8196,2.82,2.8201,2.8206,2.8204,2.819,2.8198,2.8253,2.8261,2.8269,2.8272,2.819,2.819,2.8138,2.8138,2.8138]}]]